Terminal Aerodrome Forecast
Issued by NWS

Home | Current Version | Previous Version | Text Only | Print | Product List | Glossary Off
Versions: 1 2 3 4 5 6 7 8 9 10 11 12 13 14 15 16 17 18 19 20 21 22 23

000
FTUS43 KMPX 011700
TAFRNH
TAF
KRNH 011736Z 0118/0218 14010KT 4SM -RA BR BKN008 OVC012
     FM012100 15008KT P6SM -SHRA BKN010 OVC020
     FM020000 VRB03KT P6SM OVC010
     FM020300 00000KT 3SM BR OVC006
     FM020700 00000KT 1SM BR OVC003
     FM020900 00000KT 1/2SM FG VV002
     FM021500 33003KT 5SM BR BKN015=

USA.gov is the U.S. government's official web portal to all federal, state and local government web resources and services.